QPF
0.00 0.00 0.00 0.00 0.00 0.00 0.01 0.01 0.01 0.00 0.00 0.01 0.01 0.01 0.01 0.01 0.01 0.01 0.01 0.02 0.01 0.02 0.01 0.01 0.01 0.00 0.00 0.00 0.00 0.00 0.00 0.00 0.00 0.00 0.00 0.01 0.04 0.07 0.08 0.08 0.06 0.04 0.03 0.03
0.00 0.00 0.00 0.00 0.00 0.00 0.01 0.01 0.01 0.01 0.00 0.01 0.01 0.01 0.00 0.01 0.01 0.01 0.01 0.01 0.02 0.03 0.03 0.03 0.02 0.01 0.02 0.01 0.00 0.00 0.00 0.00 0.00 0.00 0.00 0.00 0.01 0.04 0.05 0.06 0.05 0.03 0.02 0.03
0.00 0.00 0.00 0.00 0.00 0.00 0.00 0.00 0.01 0.01 0.01 0.00 0.01 0.02 0.01 0.01 0.01 0.01 0.01 0.01 0.02 0.02 0.02 0.03 0.04 0.02 0.02 0.01 0.00 0.00 0.00 0.00 0.00 0.00 0.01 0.00 0.01 0.02 0.04 0.05 0.05 0.04 0.04 0.05
0.00 0.00 0.00 0.00 0.00 0.00 0.00 0.00 0.00 0.01 0.01 0.00 0.01 0.01 0.02 0.01 0.01 0.01 0.01 0.01 0.02 0.02 0.05 0.03 0.04 0.03 0.01 0.01 0.01 0.00 0.00 0.00 0.01 0.01 0.01 0.01 0.00 0.00 0.01 0.03 0.05 0.05 0.06 0.08
0.00 0.00 0.00 0.00 0.00 0.01 0.00 0.00 0.01 0.00 0.01 0.01 0.01 0.01 0.01 0.02 0.02 0.01 0.01 0.01 0.01 0.02 0.06 0.06 0.04 0.02 0.02 0.01 0.01 0.01 0.01 0.01 0.00 0.00 0.01 0.01 0.01 0.01 0.01 0.01 0.02 0.05 0.06 0.08
0.00 0.00 0.00 0.00 0.00 0.00 0.00 0.00 0.01 0.01 0.01 0.02 0.01 0.00 0.01 0.02 0.03 0.02 0.02 0.02 0.02 0.03 0.06 0.05 0.04 0.03 0.02 0.02 0.02 0.02 0.02 0.01 0.00 0.00 0.00 0.00 0.01 0.01 0.01 0.02 0.02 0.03 0.04 0.05
0.00 0.00 0.00 0.00 0.01 0.00 0.00 0.00 0.01 0.01 0.01 0.01 0.00 0.00 0.00 0.01 0.02 0.02 0.01 0.01 0.01 0.02 0.02 0.02 0.01 0.03 0.03 0.02 0.03 0.02 0.02 0.02 0.01 0.01 0.01 0.00 0.00 0.00 0.01 0.01 0.02 0.02 0.03 0.03
0.00 0.00 0.00 0.00 0.01 0.00 0.00 0.00 0.01 0.01 0.00 0.00 0.00 0.00 0.00 0.01 0.01 0.01 0.01 0.01 0.01 0.01 0.02 0.03 0.03 0.03 0.03 0.04 0.04 0.05 0.06 0.03 0.02 0.03 0.03 0.02 0.01 0.01 0.01 0.01 0.01 0.01 0.02 0.01
0.00 0.00 0.00 0.00 0.00 0.00 0.00 0.00 0.00 0.00 0.00 0.00 0.00 0.00 0.00 0.00 0.01 0.01 0.01 0.01 0.01 0.02 0.03 0.06 0.06 0.05 0.05 0.04 0.02 0.03 0.05 0.07 0.05 0.05 0.05 0.04 0.03 0.02 0.01 0.01 0.01 0.01 0.01 0.01
0.00 0.00 0.00 0.00 0.00 0.00 0.00 0.00 0.00 0.00 0.00 0.00 0.00 0.00 0.00 0.02 0.02 0.01 0.01 0.01 0.01 0.02 0.02 0.04 0.05 0.05 0.05 0.03 0.02 0.02 0.02 0.04 0.04 0.04 0.05 0.06 0.06 0.04 0.02 0.02 0.02 0.02 0.02 0.01
0.00 0.00 0.00 0.00 0.00 0.00 0.00 0.00 0.00 0.00 0.00 0.01 0.01 0.01 0.00 0.01 0.01 0.01 0.01 0.01 0.01 0.01 0.02 0.03 0.05 0.06 0.03 0.02 0.02 0.02 0.01 0.01 0.02 0.03 0.06 0.06 0.05 0.04 0.04 0.04 0.03 0.03 0.03 0.03
0.00 0.01 0.00 0.00 0.00 0.00 0.00 0.00 0.02 0.02 0.01 0.01 0.01 0.01 0.00 0.00 0.00 0.01 0.01 0.01 0.01 0.01 0.02 0.02 0.03 0.05 0.04 0.03 0.03 0.01 0.01 0.01 0.02 0.04 0.09 0.11 0.10 0.08 0.07 0.06 0.06 0.05 0.05 0.04
0.01 0.01 0.00 0.00 0.00 0.00 0.00 0.00 0.02 0.02 0.01 0.01 0.01 0.01 0.00 0.00 0.00 0.01 0.01 0.01 0.01 0.01 0.01 0.01 0.01 0.03 0.03 0.02 0.03 0.03 0.02 0.03 0.05 0.06 0.08 0.09 0.09 0.07 0.05 0.05 0.05 0.04 0.04 0.03
0.00 0.00 0.00 0.00 0.00 0.00 0.00 0.00 0.01 0.02 0.01 0.01 0.01 0.00 0.00 0.00 0.00 0.01 0.02 0.02 0.01 0.01 0.01 0.01 0.01 0.01 0.01 0.01 0.02 0.03 0.04 0.04 0.06 0.07 0.06 0.06 0.06 0.05 0.05 0.03 0.03 0.03 0.03 0.03
0.00 0.00 0.00 0.00 0.00 0.00 0.00 0.01 0.01 0.01 0.01 0.01 0.01 0.01 0.00 0.00 0.01 0.01 0.03 0.02 0.01 0.01 0.02 0.02 0.02 0.02 0.02 0.02 0.02 0.04 0.06 0.08 0.13 0.17 0.12 0.08 0.08 0.06 0.05 0.04 0.04 0.03 0.03 0.03
0.00 0.00 0.00 0.00 0.00 0.00 0.01 0.01 0.00 0.00 0.00 0.01 0.01 0.01 0.00 0.01 0.01 0.00 0.01 0.01 0.02 0.03 0.04 0.04 0.04 0.04 0.05 0.05 0.05 0.07 0.10 0.15 0.20 0.17 0.15 0.10 0.08 0.07 0.06 0.06 0.07 0.05 0.05 0.05
0.00 0.00 0.00 0.00 0.00 0.01 0.01 0.01 0.00 0.00 0.01 0.02 0.02 0.02 0.01 0.01 0.01 0.00 0.01 0.01 0.03 0.04 0.05 0.06 0.04 0.04 0.05 0.05 0.05 0.05 0.06 0.10 0.16 0.21 0.19 0.15 0.10 0.09 0.08 0.08 0.07 0.06 0.07 0.09
0.00 0.00 0.00 0.00 0.00 0.01 0.01 0.01 0.01 0.01 0.01 0.02 0.02 0.03 0.02 0.02 0.02 0.01 0.01 0.03 0.05 0.07 0.07 0.07 0.07 0.08 0.05 0.03 0.03 0.03 0.04 0.06 0.09 0.14 0.14 0.13 0.11 0.10 0.11 0.11 0.09 0.10 0.12 0.12
0.00 0.00 0.00 0.00 0.00 0.00 0.01 0.01 0.01 0.01 0.02 0.02 0.03 0.04 0.03 0.03 0.03 0.03 0.02 0.02 0.03 0.04 0.05 0.08 0.09 0.06 0.04 0.03 0.04 0.05 0.08 0.10 0.09 0.14 0.14 0.12 0.12 0.11 0.11 0.11 0.13 0.13 0.13 0.13
0.00 0.00 0.00 0.00 0.00 0.00 0.01 0.01 0.00 0.01 0.02 0.02 0.02 0.04 0.04 0.04 0.04 0.03 0.03 0.02 0.03 0.03 0.03 0.06 0.08 0.07 0.10 0.10 0.08 0.07 0.09 0.09 0.07 0.10 0.19 0.22 0.22 0.19 0.14 0.12 0.13 0.14 0.17 0.16
0.00 0.00 0.00 0.00 0.01 0.00 0.01 0.01 0.01 0.01 0.02 0.02 0.03 0.03 0.04 0.05 0.04 0.03 0.02 0.02 0.02 0.02 0.02 0.02 0.04 0.06 0.08 0.08 0.07 0.07 0.08 0.10 0.11 0.13 0.15 0.19 0.22 0.20 0.18 0.16 0.14 0.15 0.15 0.14
0.00 0.00 0.00 0.00 0.01 0.01 0.01 0.01 0.01 0.02 0.02 0.03 0.04 0.03 0.03 0.02 0.02 0.02 0.03 0.03 0.03 0.03 0.02 0.02 0.02 0.03 0.04 0.05 0.05 0.06 0.07 0.08 0.11 0.16 0.19 0.19 0.20 0.22 0.22 0.18 0.14 0.12 0.12 0.12
0.01 0.02 0.02 0.02 0.02 0.01 0.01 0.01 0.02 0.02 0.02 0.02 0.02 0.01 0.01 0.01 0.01 0.01 0.02 0.02 0.03 0.03 0.02 0.02 0.03 0.02 0.03 0.04 0.04 0.04 0.05 0.07 0.10 0.12 0.11 0.13 0.14 0.15 0.16 0.14 0.12 0.10 0.10 0.09
0.03 0.03 0.05 0.04 0.02 0.02 0.01 0.01 0.01 0.01 0.01 0.01 0.01 0.01 0.01 0.01 0.01 0.01 0.02 0.02 0.02 0.02 0.02 0.02 0.03 0.03 0.03 0.03 0.03 0.04 0.04 0.05 0.07 0.08 0.08 0.08 0.08 0.08 0.09 0.10 0.10 0.10 0.10 0.09
0.01 0.02 0.04 0.04 0.03 0.02 0.02 0.01 0.01 0.00 0.00 0.00 0.00 0.00 0.01 0.01 0.01 0.01 0.03 0.03 0.03 0.02 0.03 0.03 0.04 0.04 0.03 0.02 0.02 0.03 0.03 0.04 0.05 0.06 0.06 0.06 0.06 0.07 0.07 0.07 0.07 0.10 0.10 0.09
0.01 0.01 0.01 0.01 0.01 0.02 0.02 0.02 0.01 0.01 0.01 0.01 0.01 0.00 0.01 0.01 0.01 0.02 0.04 0.04 0.03 0.04 0.04 0.04 0.03 0.02 0.02 0.01 0.02 0.03 0.03 0.04 0.05 0.05 0.05 0.05 0.06 0.07 0.08 0.08 0.08 0.12 0.12 0.10
MSLP
1008.34 1009.21 1009.87 1010.29 1010.48 1010.50 1010.39 1010.19 1009.93 1009.62 1009.27 1008.84 1008.35 1007.79 1007.20 1006.64 1006.15 1005.80 1005.64 1005.70 1005.96 1006.42 1007.02 1007.71 1008.45 1009.19 1009.91 1010.60 1011.26 1011.91 1012.53 1013.13 1013.70 1014.20 1014.61 1014.92 1015.13 1015.23 1015.26 1015.26 1015.26 1015.31 1015.43 1015.63
1008.92 1009.62 1010.13 1010.45 1010.63 1010.71 1010.74 1010.73 1010.70 1010.60 1010.39 1010.03 1009.51 1008.83 1008.04 1007.23 1006.49 1005.91 1005.56 1005.49 1005.69 1006.13 1006.75 1007.48 1008.24 1008.99 1009.70 1010.36 1011.00 1011.63 1012.26 1012.90 1013.53 1014.12 1014.63 1015.03 1015.29 1015.43 1015.45 1015.41 1015.34 1015.31 1015.34 1015.47
1009.48 1009.98 1010.30 1010.50 1010.65 1010.80 1010.99 1011.22 1011.46 1011.61 1011.61 1011.39 1010.90 1010.17 1009.25 1008.24 1007.28 1006.49 1005.96 1005.74 1005.84 1006.23 1006.81 1007.52 1008.25 1008.95 1009.60 1010.20 1010.77 1011.34 1011.95 1012.60 1013.28 1013.94 1014.54 1015.03 1015.38 1015.57 1015.62 1015.57 1015.47 1015.38 1015.35 1015.41
1010.14 1010.39 1010.51 1010.58 1010.69 1010.92 1011.28 1011.77 1012.30 1012.75 1013.00 1012.96 1012.58 1011.85 1010.85 1009.71 1008.57 1007.58 1006.87 1006.49 1006.46 1006.74 1007.23 1007.85 1008.49 1009.09 1009.63 1010.12 1010.58 1011.06 1011.61 1012.23 1012.91 1013.62 1014.29 1014.87 1015.31 1015.58 1015.68 1015.66 1015.56 1015.44 1015.36 1015.36
1010.98 1010.98 1010.89 1010.83 1010.90 1011.20 1011.73 1012.46 1013.28 1014.02 1014.55 1014.72 1014.47 1013.80 1012.78 1011.54 1010.26 1009.11 1008.23 1007.68 1007.49 1007.62 1007.98 1008.45 1008.96 1009.42 1009.80 1010.14 1010.45 1010.81 1011.25 1011.80 1012.45 1013.16 1013.87 1014.50 1015.01 1015.36 1015.53 1015.55 1015.48 1015.38 1015.28 1015.25
1012.04 1011.80 1011.52 1011.33 1011.37 1011.72 1012.40 1013.34 1014.41 1015.42 1016.19 1016.57 1016.47 1015.88 1014.87 1013.59 1012.22 1010.93 1009.89 1009.18 1008.82 1008.78 1008.97 1009.28 1009.61 1009.89 1010.11 1010.26 1010.41 1010.60 1010.91 1011.34 1011.91 1012.58 1013.27 1013.92 1014.47 1014.87 1015.10 1015.19 1015.17 1015.09 1015.02 1014.99
1013.28 1012.85 1012.40 1012.12 1012.12 1012.51 1013.29 1014.38 1015.63 1016.84 1017.80 1018.35 1018.38 1017.88 1016.92 1015.62 1014.20 1012.82 1011.66 1010.80 1010.29 1010.07 1010.09 1010.22 1010.37 1010.48 1010.51 1010.49 1010.46 1010.48 1010.62 1010.91 1011.36 1011.92 1012.54 1013.16 1013.70 1014.12 1014.39 1014.52 1014.56 1014.54 1014.51 1014.51
1014.60 1014.04 1013.49 1013.14 1013.11 1013.51 1014.34 1015.51 1016.86 1018.17 1019.25 1019.90 1020.03 1019.61 1018.69 1017.42 1015.98 1014.56 1013.32 1012.35 1011.71 1011.35 1011.20 1011.17 1011.16 1011.11 1010.98 1010.79 1010.59 1010.45 1010.42 1010.55 1010.84 1011.26 1011.76 1012.29 1012.77 1013.16 1013.43 1013.60 1013.68 1013.72 1013.75 1013.81
1015.87 1015.26 1014.68 1014.29 1014.25 1014.64 1015.45 1016.62 1017.97 1019.30 1020.39 1021.08 1021.25 1020.88 1020.01 1018.78 1017.37 1015.96 1014.69 1013.66 1012.93 1012.46 1012.19 1012.02 1011.88 1011.69 1011.43 1011.11 1010.78 1010.49 1010.31 1010.28 1010.40 1010.65 1011.00 1011.39 1011.77 1012.09 1012.33 1012.49 1012.60 1012.69 1012.78 1012.91
1016.96 1016.39 1015.84 1015.47 1015.43 1015.79 1016.55 1017.63 1018.89 1020.13 1021.15 1021.80 1021.95 1021.60 1020.79 1019.62 1018.28 1016.91 1015.66 1014.62 1013.84 1013.30 1012.94 1012.67 1012.42 1012.14 1011.79 1011.38 1010.95 1010.56 1010.26 1010.09 1010.05 1010.14 1010.33 1010.56 1010.80 1011.02 1011.18 1011.32 1011.43 1011.55 1011.69 1011.89
1017.79 1017.33 1016.88 1016.58 1016.55 1016.87 1017.54 1018.49 1019.58 1020.65 1021.52 1022.06 1022.16 1021.80 1021.03 1019.94 1018.68 1017.39 1016.20 1015.19 1014.40 1013.81 1013.38 1013.04 1012.72 1012.36 1011.95 1011.50 1011.02 1010.57 1010.20 1009.93 1009.77 1009.72 1009.75 1009.84 1009.94 1010.03 1010.11 1010.19 1010.27 1010.40 1010.57 1010.82
1018.32 1018.04 1017.74 1017.55 1017.57 1017.86 1018.42 1019.19 1020.07 1020.92 1021.60 1021.98 1021.99 1021.60 1020.87 1019.86 1018.70 1017.51 1016.39 1015.42 1014.63 1014.00 1013.52 1013.10 1012.71 1012.30 1011.86 1011.38 1010.89 1010.43 1010.03 1009.71 1009.48 1009.34 1009.26 1009.22 1009.20 1009.18 1009.17 1009.18 1009.22 1009.33 1009.51 1009.78
1018.62 1018.56 1018.45 1018.40 1018.48 1018.74 1019.19 1019.78 1020.44 1021.04 1021.50 1021.70 1021.60 1021.18 1020.47 1019.54 1018.47 1017.38 1016.33 1015.40 1014.59 1013.93 1013.36 1012.87 1012.40 1011.93 1011.45 1010.96 1010.49 1010.05 1009.66 1009.35 1009.11 1008.92 1008.78 1008.66 1008.56 1008.45 1008.37 1008.31 1008.31 1008.38 1008.55 1008.81
1018.79 1018.95 1019.04 1019.14 1019.29 1019.54 1019.89 1020.31 1020.74 1021.12 1021.35 1021.38 1021.17 1020.71 1020.02 1019.14 1018.16 1017.14 1016.14 1015.21 1014.38 1013.63 1012.96 1012.36 1011.78 1011.23 1010.71 1010.21 1009.76 1009.36 1009.03 1008.76 1008.55 1008.39 1008.24 1008.10 1007.95 1007.80 1007.67 1007.57 1007.52 1007.56 1007.69 1007.93
1018.95 1019.29 1019.57 1019.80 1020.03 1020.27 1020.54 1020.82 1021.06 1021.23 1021.27 1021.15 1020.83 1020.32 1019.63 1018.80 1017.87 1016.90 1015.91 1014.96 1014.04 1013.19 1012.38 1011.63 1010.92 1010.27 1009.68 1009.16 1008.72 1008.37 1008.11 1007.92 1007.78 1007.68 1007.57 1007.46 1007.32 1007.17 1007.03 1006.90 1006.83 1006.84 1006.93 1007.13
1019.17 1019.66 1020.08 1020.42 1020.71 1020.95 1021.16 1021.32 1021.41 1021.41 1021.30 1021.04 1020.64 1020.09 1019.40 1018.58 1017.68 1016.71 1015.70 1014.67 1013.65 1012.65 1011.68 1010.75 1009.89 1009.11 1008.43 1007.88 1007.44 1007.14 1006.95 1006.85 1006.81 1006.79 1006.76 1006.71 1006.63 1006.52 1006.39 1006.27 1006.20 1006.18 1006.25 1006.40
1019.50 1020.08 1020.58 1021.00 1021.32 1021.57 1021.73 1021.80 1021.78 1021.66 1021.43 1021.08 1020.60 1020.01 1019.30 1018.48 1017.57 1016.57 1015.51 1014.39 1013.24 1012.07 1010.92 1009.81 1008.78 1007.87 1007.10 1006.50 1006.06 1005.78 1005.66 1005.64 1005.69 1005.77 1005.84 1005.87 1005.87 1005.82 1005.74 1005.66 1005.60 1005.59 1005.64 1005.75
1019.93 1020.53 1021.06 1021.51 1021.85 1022.08 1022.21 1022.22 1022.12 1021.92 1021.60 1021.18 1020.66 1020.03 1019.29 1018.45 1017.51 1016.46 1015.32 1014.10 1012.81 1011.49 1010.17 1008.90 1007.73 1006.69 1005.83 1005.17 1004.72 1004.47 1004.38 1004.43 1004.56 1004.72 1004.88 1005.00 1005.08 1005.11 1005.10 1005.08 1005.06 1005.07 1005.11 1005.20
1020.39 1020.96 1021.47 1021.90 1022.23 1022.45 1022.54 1022.52 1022.38 1022.12 1021.76 1021.29 1020.73 1020.06 1019.30 1018.42 1017.43 1016.33 1015.11 1013.79 1012.39 1010.94 1009.50 1008.11 1006.82 1005.70 1004.77 1004.07 1003.59 1003.34 1003.28 1003.36 1003.54 1003.76 1003.99 1004.18 1004.34 1004.45 1004.51 1004.56 1004.60 1004.64 1004.71 1004.80
1020.79 1021.30 1021.75 1022.14 1022.44 1022.63 1022.70 1022.66 1022.49 1022.21 1021.82 1021.33 1020.73 1020.04 1019.24 1018.33 1017.29 1016.14 1014.86 1013.47 1012.00 1010.48 1008.96 1007.50 1006.16 1004.99 1004.02 1003.29 1002.80 1002.53 1002.47 1002.56 1002.75 1002.99 1003.26 1003.50 1003.72 1003.89 1004.03 1004.15 1004.26 1004.36 1004.46 1004.56
1021.05 1021.47 1021.86 1022.19 1022.44 1022.61 1022.67 1022.62 1022.45 1022.16 1021.76 1021.25 1020.64 1019.92 1019.09 1018.15 1017.08 1015.89 1014.58 1013.17 1011.67 1010.14 1008.61 1007.14 1005.80 1004.62 1003.65 1002.90 1002.39 1002.10 1002.01 1002.07 1002.24 1002.47 1002.74 1003.00 1003.26 1003.49 1003.69 1003.88 1004.06 1004.22 1004.37 1004.50
1021.10 1021.44 1021.76 1022.03 1022.25 1022.40 1022.46 1022.41 1022.24 1021.96 1021.57 1021.06 1020.43 1019.70 1018.85 1017.88 1016.80 1015.60 1014.29 1012.90 1011.43 1009.94 1008.46 1007.04 1005.74 1004.59 1003.64 1002.89 1002.36 1002.03 1001.89 1001.90 1002.01 1002.20 1002.44 1002.70 1002.97 1003.23 1003.49 1003.75 1003.99 1004.21 1004.41 1004.57
1020.93 1021.20 1021.46 1021.69 1021.89 1022.02 1022.08 1022.05 1021.91 1021.64 1021.26 1020.76 1020.13 1019.39 1018.54 1017.56 1016.49 1015.31 1014.04 1012.70 1011.31 1009.90 1008.51 1007.18 1005.96 1004.87 1003.95 1003.20 1002.64 1002.26 1002.05 1001.97 1002.00 1002.13 1002.31 1002.54 1002.81 1003.10 1003.40 1003.71 1004.01 1004.29 1004.54 1004.73
1020.54 1020.76 1020.98 1021.19 1021.37 1021.51 1021.60 1021.59 1021.47 1021.24 1020.88 1020.39 1019.78 1019.04 1018.19 1017.24 1016.19 1015.06 1013.86 1012.60 1011.31 1010.02 1008.75 1007.53 1006.39 1005.37 1004.47 1003.73 1003.13 1002.68 1002.38 1002.20 1002.14 1002.18 1002.30 1002.49 1002.74 1003.05 1003.38 1003.74 1004.09 1004.41 1004.70 1004.92
1019.98 1020.17 1020.36 1020.56 1020.75 1020.92 1021.03 1021.05 1020.98 1020.78 1020.46 1019.99 1019.40 1018.68 1017.86 1016.94 1015.94 1014.87 1013.76 1012.61 1011.44 1010.27 1009.12 1008.02 1006.97 1006.00 1005.13 1004.36 1003.71 1003.19 1002.78 1002.50 1002.34 1002.29 1002.34 1002.49 1002.73 1003.04 1003.40 1003.78 1004.17 1004.53 1004.84 1005.08
1019.31 1019.47 1019.65 1019.86 1020.07 1020.26 1020.41 1020.49 1020.46 1020.30 1020.01 1019.59 1019.03 1018.35 1017.56 1016.69 1015.75 1014.77 1013.75 1012.71 1011.67 1010.62 1009.59 1008.58 1007.61 1006.68 1005.82 1005.02 1004.32 1003.71 1003.21 1002.83 1002.57 1002.44 1002.43 1002.54 1002.76 1003.07 1003.45 1003.85 1004.26 1004.64 1004.96 1005.20
Thickness
5840 5820 5807 5815 5824 5824 5821 5816 5812 5824 5843 5834 5823 5821 5827 5834 5831 5825 5822 5821 5819 5818 5820 5819 5818 5816 5811 5808 5805 5801 5798 5795 5792 5788 5784 5781 5779 5779 5779 5779 5778 5777 5775 5774
5816 5809 5828 5837 5837 5833 5825 5814 5814 5827 5843 5834 5821 5821 5830 5834 5834 5833 5829 5825 5822 5818 5817 5816 5816 5814 5810 5807 5805 5802 5799 5796 5794 5791 5787 5784 5782 5780 5780 5779 5778 5777 5776 5774
5807 5821 5841 5837 5829 5825 5821 5815 5817 5820 5831 5833 5820 5806 5815 5827 5834 5834 5834 5831 5827 5824 5820 5819 5817 5816 5813 5809 5807 5805 5801 5799 5796 5793 5789 5785 5781 5779 5778 5777 5777 5777 5776 5774
5815 5832 5835 5828 5824 5825 5811 5832 5831 5826 5808 5796 5807 5776 5800 5815 5821 5827 5830 5830 5828 5827 5824 5821 5819 5817 5816 5815 5812 5807 5803 5800 5797 5794 5789 5784 5779 5775 5776 5777 5777 5776 5776 5774
5810 5827 5825 5820 5827 5831 5825 5841 5833 5826 5809 5794 5798 5780 5788 5809 5809 5819 5828 5831 5831 5829 5825 5822 5822 5820 5818 5816 5813 5809 5804 5800 5798 5795 5791 5786 5782 5780 5779 5778 5776 5776 5775 5775
5819 5835 5833 5831 5839 5840 5838 5830 5820 5807 5790 5772 5790 5780 5779 5801 5814 5823 5829 5833 5832 5830 5827 5825 5824 5820 5817 5815 5812 5808 5803 5800 5798 5795 5792 5788 5784 5781 5778 5776 5774 5774 5774 5774
5803 5819 5833 5840 5824 5828 5822 5790 5765 5763 5754 5762 5790 5783 5786 5819 5832 5833 5831 5833 5834 5832 5827 5823 5819 5816 5814 5812 5809 5806 5802 5799 5798 5795 5792 5790 5786 5783 5780 5777 5775 5773 5772 5772
5777 5782 5816 5830 5822 5811 5810 5790 5757 5746 5745 5759 5782 5779 5800 5828 5835 5837 5837 5836 5834 5830 5827 5823 5820 5818 5815 5811 5809 5806 5802 5799 5798 5795 5793 5790 5788 5785 5782 5780 5778 5776 5774 5773
5774 5780 5817 5830 5835 5823 5805 5793 5790 5764 5760 5754 5764 5783 5805 5823 5825 5827 5827 5826 5825 5826 5826 5823 5820 5819 5816 5812 5810 5808 5804 5800 5798 5796 5792 5790 5788 5785 5783 5782 5780 5778 5776 5775
5790 5779 5800 5820 5826 5822 5815 5804 5776 5758 5742 5737 5753 5767 5775 5798 5806 5814 5816 5816 5818 5821 5822 5821 5820 5819 5818 5815 5812 5808 5804 5801 5799 5796 5793 5791 5788 5785 5783 5781 5779 5777 5776 5775
5791 5773 5781 5796 5796 5794 5798 5791 5774 5754 5749 5735 5732 5754 5799 5802 5807 5808 5810 5814 5817 5817 5819 5819 5818 5818 5815 5812 5808 5805 5802 5800 5797 5795 5792 5790 5787 5785 5781 5779 5778 5776 5775 5773
5787 5766 5758 5776 5801 5811 5802 5790 5772 5750 5746 5742 5735 5755 5808 5809 5810 5810 5808 5811 5813 5814 5815 5814 5813 5812 5809 5806 5803 5801 5800 5798 5796 5794 5791 5788 5786 5782 5779 5776 5776 5774 5772 5770
5783 5758 5740 5750 5768 5787 5787 5788 5778 5763 5747 5737 5733 5755 5799 5803 5803 5805 5804 5804 5805 5806 5807 5806 5805 5804 5804 5802 5799 5798 5796 5794 5793 5791 5788 5785 5782 5779 5777 5775 5773 5771 5769 5766
5787 5754 5741 5734 5745 5763 5769 5778 5778 5760 5739 5737 5746 5758 5779 5787 5790 5794 5795 5796 5797 5798 5799 5798 5797 5797 5797 5796 5794 5793 5791 5790 5788 5785 5783 5780 5778 5776 5775 5773 5771 5768 5766 5763
5771 5750 5753 5754 5763 5768 5768 5771 5774 5765 5756 5747 5753 5758 5770 5780 5785 5788 5790 5788 5788 5788 5787 5788 5788 5789 5788 5787 5787 5786 5784 5784 5782 5779 5777 5776 5774 5772 5770 5767 5766 5765 5762 5760
5754 5746 5747 5748 5760 5761 5759 5766 5769 5767 5765 5759 5758 5758 5774 5779 5781 5781 5780 5780 5778 5777 5778 5779 5780 5781 5781 5780 5779 5778 5778 5778 5777 5773 5771 5770 5768 5766 5764 5762 5760 5758 5757 5755
5739 5735 5726 5722 5740 5744 5735 5753 5756 5755 5759 5756 5746 5754 5765 5765 5767 5768 5771 5772 5771 5771 5772 5771 5772 5774 5774 5774 5773 5772 5772 5772 5770 5767 5765 5762 5761 5760 5758 5758 5755 5753 5751 5748
5733 5723 5711 5710 5720 5709 5732 5758 5760 5751 5750 5752 5752 5754 5757 5756 5759 5764 5766 5766 5765 5766 5765 5765 5766 5766 5767 5768 5768 5767 5766 5764 5761 5758 5757 5755 5753 5751 5750 5749 5747 5746 5744 5742
5736 5721 5704 5695 5696 5707 5732 5748 5749 5739 5732 5745 5744 5746 5749 5754 5752 5751 5757 5759 5759 5760 5759 5758 5759 5759 5759 5759 5759 5758 5756 5754 5752 5750 5749 5748 5746 5744 5742 5740 5739 5737 5736 5734
5725 5717 5701 5692 5690 5690 5715 5743 5753 5740 5716 5738 5740 5738 5739 5740 5728 5734 5748 5751 5752 5753 5752 5751 5751 5751 5750 5749 5749 5747 5745 5743 5742 5742 5741 5741 5740 5738 5735 5734 5733 5731 5729 5727
5700 5697 5691 5686 5685 5695 5720 5738 5741 5709 5708 5731 5734 5734 5733 5729 5729 5735 5740 5741 5742 5743 5744 5744 5743 5740 5740 5740 5739 5735 5734 5733 5734 5734 5733 5732 5731 5730 5729 5726 5725 5723 5721 5718
5683 5679 5679 5677 5675 5685 5719 5723 5712 5709 5721 5725 5727 5729 5728 5728 5730 5731 5731 5731 5732 5732 5734 5735 5732 5730 5730 5730 5728 5725 5724 5725 5725 5725 5724 5723 5723 5722 5720 5717 5716 5714 5711 5708
5680 5681 5678 5679 5684 5701 5713 5713 5715 5716 5715 5718 5719 5722 5723 5721 5721 5722 5722 5721 5722 5724 5725 5725 5722 5720 5719 5719 5718 5715 5715 5716 5715 5714 5714 5713 5713 5712 5710 5708 5706 5704 5702 5699
5678 5685 5679 5677 5687 5696 5702 5708 5710 5712 5712 5714 5715 5715 5715 5713 5714 5713 5713 5712 5713 5715 5715 5714 5713 5710 5708 5709 5708 5707 5707 5707 5705 5704 5703 5703 5702 5700 5700 5699 5697 5695 5693 5690
5671 5674 5670 5670 5680 5687 5694 5698 5702 5705 5707 5707 5708 5708 5707 5705 5704 5704 5704 5704 5704 5704 5704 5704 5702 5700 5699 5698 5698 5698 5698 5697 5694 5693 5692 5692 5691 5690 5688 5687 5686 5686 5685 5684
5664 5663 5661 5662 5674 5674 5680 5691 5696 5697 5698 5699 5699 5699 5700 5699 5697 5696 5694 5695 5695 5694 5694 5692 5691 5690 5689 5689 5688 5688 5688 5686 5684 5682 5682 5681 5680 5679 5677 5676 5674 5674 5674 5674